CW5629 Weather Reports


Display with metric or nautical units.
time (UTC)temp
F
wind
direction
speed
MPH
gust
MPH
rain 1hr
in
rain 24hr
in
rain mn
in
humidity
%
barometer
mb
20260508122126 67 105 0.0 2.0 0.00 0.00 0.00 61 1014.1
20260508121120 67 165 0.0 2.0 0.00 0.00 0.00 62 1014.2
20260508120154 66 117 0.0 4.0 0.00 0.00 0.00 60 1014.3
20260508115119 67 98 0.0 2.0 0.00 0.00 0.00 61 1014.2
20260508114130 67 108 0.0 2.0 0.00 0.00 0.00 60 1014.4
20260508113115 67 125 0.0 2.0 0.00 0.00 0.00 62 1014.3
20260508112114 68 108 0.0 3.0 0.00 0.00 0.00 62 1014.2
20260508111121 68 126 1.0 6.0 0.00 0.00 0.00 62 1014.1
20260508110114 67 116 0.0 2.0 0.00 0.00 0.00 62 1014.2
20260508105148 66 95 0.0 2.0 0.00 0.00 0.00 66 1014.1
20260508104142 64 84 1.0 3.0 0.00 0.00 0.00 67 1014.1
20260508103127 65 94 0.0 2.0 0.00 0.00 0.00 64 1014.1
20260508102120 65 109 0.0 2.0 0.00 0.00 0.00 65 1013.9
20260508101155 65 115 0.0 2.0 0.00 0.00 0.00 66 1014.0
20260508100147 64 120 0.0 1.0 0.00 0.00 0.00 67 1014.1
20260508095112 64 129 0.0 2.0 0.00 0.00 0.00 67 1014.1
20260508094124 64 105 0.0 2.0 0.00 0.00 0.00 67 1014.1
20260508093110 63 107 0.0 1.0 0.00 0.00 0.00 66 1014.0
20260508092144 63 115 0.0 1.0 0.00 0.00 0.00 71 1013.9
20260508091115 62 129 0.0 1.0 0.00 0.00 0.00 74 1013.9
20260508090122 61 95 0.0 1.0 0.00 0.00 0.00 75 1013.9
20260508085114 60 115 0.0 2.0 0.00 0.00 0.00 79 1013.9
20260508084117 58 131 0.0 2.0 0.00 0.00 0.00 83 1014.0
20260508083109 57 98 0.0 1.0 0.00 0.00 0.00 82 1014.0
20260508082123 57 121 0.0 1.0 0.00 0.00 0.00 82 1014.0
20260508081127 57 98 0.0 3.0 0.00 0.00 0.00 81 1013.9
20260508080120 58 120 0.0 1.0 0.00 0.00 0.00 78 1014.0
20260508075121 58 113 0.0 1.0 0.00 0.00 0.00 80 1013.9
20260508074112 57 105 0.0 1.0 0.00 0.00 0.00 81 1013.7
20260508073148 57 105 0.0 1.0 0.00 0.00 0.00 83 1013.7
20260508072113 56 105 0.0 1.0 0.00 0.00 0.00 86 1013.7
20260508070139 53 115 0.0 0.0 0.00 0.00 0.00 89 1013.6
20260508065130 53 115 0.0 1.0 0.00 0.00 0.00 88 1013.5
20260508064134 53 117 0.0 1.0 0.00 0.00 0.00 88 1013.4
20260508063146 52 117 0.0 1.0 0.00 0.00 0.00 89 1013.4
20260508062117 52 103 0.0 1.0 0.00 0.00 0.00 89 1013.3
20260508061130 52 106 0.0 1.0 0.00 0.00 0.00 89 1013.3
20260508060116 51 109 0.0 1.0 0.00 0.00 0.00 89 1013.4
20260508055127 51 112 0.0 0.0 0.00 0.00 0.00 89 1013.3
20260508054114 51 112 0.0 1.0 0.00 0.00 0.00 90 1013.4
20260508053126 51 112 0.0 0.0 0.00 0.00 0.00 90 1013.3
20260508052119 51 111 0.0 0.0 0.00 0.00 0.00 90 1013.3
20260508051123 50 111 0.0 0.0 0.00 0.00 0.00 90 1013.3
20260508050118 50 111 0.0 0.0 0.00 0.00 0.00 89 1013.3
20260508045121 50 111 0.0 0.0 0.00 0.00 0.00 89 1013.2
20260508044111 50 111 0.0 0.0 0.00 0.00 0.00 89 1013.2
20260508043123 50 115 0.0 0.0 0.00 0.00 0.00 89 1013.2
20260508042113 50 115 0.0 0.0 0.00 0.00 0.00 89 1013.2
20260508041127 50 114 0.0 0.0 0.00 0.00 0.00 89 1013.0
20260508040140 50 116 0.0 0.0 0.00 0.00 0.00 89 1012.9
20260508035132 51 116 0.0 0.0 0.00 0.00 0.00 89 1013.0
20260508034115 51 116 0.0 0.0 0.00 0.00 0.00 89 1013.2
20260508033128 51 116 0.0 0.0 0.00 0.00 0.00 89 1013.3
20260508032114 51 116 0.0 1.0 0.00 0.00 0.00 89 1013.4
20260508031128 51 116 0.0 0.0 0.00 0.00 0.00 89 1013.4
20260508030141 51 116 0.0 0.0 0.00 0.00 0.00 89 1013.5
20260508025133 51 116 0.0 0.0 0.00 0.00 0.00 89 1013.6
20260508024117 51 116 0.0 1.0 0.00 0.00 0.00 89 1013.5
20260508023129 51 129 0.0 0.0 0.00 0.00 0.00 89 1013.7
20260508022122 51 129 0.0 0.0 0.00 0.00 0.00 89 1013.6
20260508021134 51 129 0.0 0.0 0.00 0.00 0.00 90 1013.6
20260508020120 51 129 0.0 0.0 0.00 0.00 0.00 90 1013.8
20260508015133 51 129 0.0 0.0 0.00 0.00 0.00 90 1013.8
20260508014126 51 129 0.0 1.0 0.00 0.00 0.00 90 1013.7
20260508013120 51 110 0.0 0.0 0.00 0.00 0.00 90 1013.7
20260508012125 51 110 0.0 1.0 0.00 0.00 0.00 90 1013.8
20260508010111 51 122 0.0 0.0 0.00 0.00 0.00 90 1013.9
20260508005123 51 122 0.0 0.0 0.00 0.00 0.00 90 1014.0
20260508004137 51 122 0.0 1.0 0.00 0.00 0.00 90 1014.1
20260508003123 52 122 0.0 0.0 0.00 0.00 0.00 90 1014.0
20260508002136 52 122 0.0 0.0 0.00 0.00 0.00 90 1014.0
20260508001122 52 122 0.0 0.0 0.00 0.00 0.00 89 1014.1
20260508000135 52 122 0.0 0.0 0.00 0.00 0.00 89 1014.2
20260507235121 52 122 0.0 0.0 0.00 0.00 0.00 89 1014.2
20260507234114 52 122 0.0 1.0 0.00 0.00 0.00 88 1014.2
20260507233120 52 123 0.0 1.0 0.00 0.00 0.00 88 1014.3
20260507232113 52 123 0.0 1.0 0.00 0.00 0.00 88 1014.3
20260507231120 52 119 0.0 1.0 0.00 0.00 0.00 88 1014.3
20260507230131 52 119 0.0 0.0 0.00 0.00 0.00 87 1014.3
20260507225124 52 119 0.0 1.0 0.00 0.00 0.00 86 1014.3
20260507224157 52 119 0.0 0.0 0.00 0.00 0.00 86 1014.3
20260507223122 52 119 0.0 1.0 0.00 0.00 0.00 85 1014.4
20260507222113 52 120 0.0 0.0 0.00 0.00 0.00 84 1014.4
20260507221125 52 113 0.0 0.0 0.00 0.00 0.00 83 1014.4
20260507220116 52 113 0.0 1.0 0.00 0.00 0.00 83 1014.5
20260507215135 52 103 0.0 1.0 0.00 0.00 0.00 82 1014.6
20260507214112 52 120 0.0 1.0 0.00 0.00 0.00 81 1014.5
20260507213118 52 113 0.0 0.0 0.00 0.00 0.00 81 1014.5
20260507212130 52 113 0.0 0.0 0.00 0.00 0.00 81 1014.4
20260507211117 52 113 0.0 0.0 0.00 0.00 0.00 80 1014.4
20260507210158 53 113 0.0 0.0 0.00 0.00 0.00 79 1014.3
20260507205143 53 113 0.0 0.0 0.00 0.00 0.00 79 1014.3
20260507204115 53 113 0.0 1.0 0.00 0.00 0.00 79 1014.2
20260507203128 53 113 0.0 1.0 0.00 0.00 0.00 80 1014.1
20260507202141 53 120 0.0 1.0 0.00 0.00 0.00 80 1014.1
20260507201126 53 120 0.0 1.0 0.00 0.00 0.00 79 1014.0
20260507200119 53 120 0.0 0.0 0.00 0.00 0.00 79 1013.9
20260507195126 53 120 0.0 1.0 0.00 0.00 0.00 78 1013.8
20260507194137 53 120 0.0 1.0 0.00 0.00 0.00 78 1013.7
20260507193128 53 122 0.0 1.0 0.00 0.00 0.00 78 1013.7
20260507192120 53 113 0.0 0.0 0.00 0.00 0.00 77 1013.7
20260507191154 53 114 0.0 1.0 0.00 0.00 0.00 76 1013.6
20260507190120 54 117 0.0 0.0 0.00 0.00 0.00 75 1013.6
20260507185153 54 104 0.0 1.0 0.00 0.00 0.00 73 1013.5
20260507184124 55 120 0.0 1.0 0.00 0.00 0.00 72 1013.5
20260507183130 56 120 0.0 1.0 0.00 0.00 0.00 71 1013.5
20260507182122 56 82 0.0 1.0 0.00 0.00 0.00 70 1013.5
20260507181135 57 95 0.0 1.0 0.00 0.00 0.00 71 1013.4
20260507180147 57 108 0.0 1.0 0.00 0.00 0.00 70 1013.5
20260507175112 57 104 0.0 2.0 0.00 0.00 0.00 67 1013.5
20260507174126 57 120 0.0 1.0 0.00 0.00 0.00 64 1013.5
20260507173116 57 304 0.0 2.0 0.00 0.00 0.00 63 1013.5
20260507172148 58 122 0.0 1.0 0.00 0.00 0.00 61 1013.6
20260507171112 58 116 0.0 1.0 0.00 0.00 0.00 60 1013.7
20260507170125 58 96 0.0 1.0 0.00 0.00 0.00 58 1013.6
20260507165131 58 97 0.0 1.0 0.00 0.00 0.00 59 1013.7
20260507164144 58 119 0.0 1.0 0.00 0.00 0.00 61 1013.6
20260507163115 58 115 0.0 1.0 0.00 0.00 0.00 63 1013.7
20260507162121 58 105 0.0 1.0 0.00 0.00 0.00 61 1013.6
20260507161113 59 133 0.0 2.0 0.00 0.00 0.00 60 1013.7
20260507160120 59 126 0.0 2.0 0.00 0.00 0.00 58 1013.7
20260507155114 60 127 0.0 6.0 0.00 0.00 0.00 55 1013.8
20260507154127 61 110 0.0 2.0 0.00 0.00 0.00 57 1013.8
20260507153113 61 80 0.0 3.0 0.00 0.00 0.00 56 1013.7
20260507152126 61 115 0.0 4.0 0.00 0.00 0.00 54 1013.8
20260507151132 61 120 0.0 2.0 0.00 0.00 0.00 54 1013.8
20260507150122 61 98 0.0 3.0 0.00 0.00 0.00 57 1013.9
20260507145136 62 112 0.0 3.0 0.00 0.00 0.00 52 1014.0
20260507144141 62 129 0.0 2.0 0.00 0.00 0.00 50 1014.0
20260507143114 62 117 0.0 3.0 0.00 0.00 0.00 52 1014.0
20260507142128 62 94 0.0 2.0 0.00 0.00 0.00 52 1014.1
20260507141113 62 123 0.0 5.0 0.00 0.00 0.00 54 1014.3
20260507140147 61 110 0.0 3.0 0.00 0.00 0.00 55 1014.4
20260507135139 61 110 0.0 3.0 0.00 0.00 0.00 54 1014.4
20260507134124 60 106 0.0 4.0 0.00 0.00 0.00 53 1014.3
20260507133118 61 108 0.0 3.0 0.00 0.00 0.00 51 1014.3
20260507132151 62 113 1.0 2.0 0.00 0.00 0.00 51 1014.4
20260507131115 63 288 1.0 3.0 0.00 0.00 0.00 52 1014.5
20260507130129 62 134 0.0 2.0 0.00 0.00 0.00 56 1014.4
20260507125143 61 336 1.0 5.0 0.00 0.00 0.00 60 1014.4
20260507124134 61 101 0.0 4.0 0.00 0.00 0.00 64 1014.3
20260507123120 61 114 0.0 4.0 0.00 0.00 0.00 66 1014.5